TCN769 KIAD-KTEB

Flight info

Callsign TCN769
Flight time N/A
Altitude 31000
Route WOOLY2 SWANN JAIKE4
Aircraft C750/M-SBDE3FGHRWXY/S

Departure

Time 2026-05-05 19:43
Airport Washington Dulles International Airport (KIAD)

Arrival

Time N/A
Airport Teterboro Airport (KTEB)
Time Latitude Longitude Altitude Speed Heading
2026-05-05 19:25 38.95687 -77.43987 297 ft 0 kts 102°
2026-05-05 19:38 38.95683 -77.43978 297 ft 4 kts 122°
2026-05-05 19:38 38.95648 -77.43962 301 ft 5 kts 175°
2026-05-05 19:39 38.95607 -77.43961 298 ft 8 kts 180°
2026-05-05 19:39 38.95564 -77.43960 299 ft 10 kts 174°
2026-05-05 19:39 38.95495 -77.43905 297 ft 13 kts 116°
2026-05-05 19:39 38.95487 -77.43863 298 ft 4 kts 98°
2026-05-05 19:40 38.95455 -77.43847 297 ft 12 kts 182°
2026-05-05 19:40 38.95400 -77.43811 297 ft 6 kts 111°
2026-05-05 19:40 38.95396 -77.43747 297 ft 8 kts 91°
2026-05-05 19:40 38.95395 -77.43731 297 ft 0 kts 91°
2026-05-05 19:42 38.95395 -77.43719 298 ft 3 kts 89°
2026-05-05 19:42 38.95381 -77.43627 299 ft 21 kts 129°
2026-05-05 19:42 38.95093 -77.43608 298 ft 86 kts 180°
2026-05-05 19:42 38.94273 -77.43648 486 ft 132 kts 185°
2026-05-05 19:43 38.93390 -77.43639 1170 ft 126 kts 182°
2026-05-05 19:43 38.92471 -77.43960 1181 ft 158 kts 218°
2026-05-05 19:43 38.92058 -77.45394 1073 ft 197 kts 271°
2026-05-05 19:43 38.92823 -77.46903 1996 ft 205 kts 311°
2026-05-05 19:44 38.93862 -77.48054 3240 ft 197 kts 319°
2026-05-05 19:44 38.95315 -77.48566 3568 ft 252 kts 357°
2026-05-05 19:44 38.97137 -77.47718 3655 ft 303 kts 38°
2026-05-05 19:44 38.98185 -77.45585 5143 ft 274 kts 79°
2026-05-05 19:45 38.98321 -77.43255 6598 ft 256 kts 95°
2026-05-05 19:45 38.98320 -77.40904 7394 ft 275 kts 91°
2026-05-05 19:45 38.98606 -77.38338 7945 ft 306 kts 81°
2026-05-05 19:45 38.99120 -77.35625 8894 ft 314 kts 78°
2026-05-05 19:46 38.99582 -77.32843 9845 ft 323 kts 81°